Zurück zum Katalog

THOR ABLESTAR DEB

AktivLEO
NORAD 405·DEBRIS·🇺🇸 United States

Gestartet Jun 29, 1961 von Cape Canaveral Space Force Station

Loading…

Nächste Überflüge (nächste 24 Stunden)

TLE

AktuellSource: Space-Track

Epoche: Sep 6, 2026, 05:10 UTC

1 00405U 61015EE  26249.21572132  .00000053  00000-0  14607-3 0  9997
2 00405  66.8955 333.5160 0080460 127.4687 260.5655 13.66725611243224

Verfolge THOR ABLESTAR DEB in Echtzeit mit AllMySat

Download on the App Store